User: anonymous   Login
Location: Onan Observatory
(44.8103°N, 93.9397°W)
Time: 07:53:34
(UTC-05:00)
Language:

Iridium 90 - Orbit

View from above orbital plane
View from above orbital plane
View from above satellite
View from above satellite

Ground track
Ground track

The orbit data is extracted from the following two-line orbital elements,

1 27373U 02005B   17291.55833768 +.00000007 +00000-0 -40521-5 0  9999
2 27373 086.4424 298.4938 0002171 082.8675 277.2772 14.42949487829074
Epoch (UTC): 18 October 2017 13:24:00
Eccentricity: 0.0002171
inclination: 86.4424°
perigee height: 747 km
apogee height: 750 km
right ascension of ascending node: 298.4938°
argument of perigee: 82.8675°
revolutions per day: 14.42949487
mean anomaly at epoch: 277.2772°
orbit number at epoch: 82907

The dashed part of the orbit path shows where the satellite is in the earth's shadow,  

DLR